| time (UTC) | temp F | wind direction | speed knots | gust knots | rain 1hr in | rain 24hr in | rain mn in | humidity % | barometer mb |
| 20260510060552 | 46 | 0 | 0.0 | 1.7 | 0.00 | 0.00 | 0.00 | 80 | 1019.7 |
| 20260510060056 | 46 | 0 | 0.0 | 0.0 | 0.00 | 0.00 | 0.00 | 80 | 1019.7 |
| 20260510055553 | 46 | 0 | 0.0 | 0.0 | 0.00 | 0.00 | 0.00 | 79 | 1019.7 |
| 20260510055053 | 46 | 0 | 0.0 | 0.0 | 0.00 | 0.00 | 0.00 | 78 | 1019.6 |
| 20260510054554 | 47 | 0 | 0.0 | 0.9 | 0.00 | 0.00 | 0.00 | 78 | 1019.6 |
| 20260510054051 | 47 | 0 | 0.0 | 0.9 | 0.00 | 0.00 | 0.00 | 77 | 1019.6 |
| 20260510053550 | 48 | 0 | 0.0 | 0.9 | 0.00 | 0.00 | 0.00 | 76 | 1019.6 |
| 20260510053056 | 49 | 0 | 0.0 | 0.9 | 0.00 | 0.00 | 0.00 | 74 | 1019.5 |
| 20260510052555 | 49 | 0 | 0.0 | 0.9 | 0.00 | 0.00 | 0.00 | 73 | 1019.7 |
| 20260510052054 | 51 | 0 | 0.0 | 0.9 | 0.00 | 0.00 | 0.00 | 72 | 1019.6 |
| 20260510051557 | 51 | 0 | 0.0 | 0.0 | 0.00 | 0.00 | 0.00 | 73 | 1019.5 |
| 20260510051054 | 52 | 0 | 0.0 | 0.0 | 0.00 | 0.00 | 0.00 | 73 | 1019.6 |
| 20260510050555 | 52 | 0 | 0.0 | 0.0 | 0.00 | 0.00 | 0.00 | 74 | 1019.7 |
| 20260510050055 | 53 | 0 | 0.0 | 0.0 | 0.00 | 0.00 | 0.00 | 72 | 1019.7 |
| 20260510045554 | 53 | 0 | 0.0 | 0.9 | 0.00 | 0.00 | 0.00 | 73 | 1019.7 |
| 20260510045052 | 53 | 0 | 0.0 | 0.9 | 0.00 | 0.00 | 0.00 | 72 | 1019.7 |
| 20260510044627 | 53 | 0 | 0.0 | 0.9 | 0.00 | 0.00 | 0.00 | 72 | 1019.7 |
| 20260510044049 | 53 | 0 | 0.0 | 0.9 | 0.00 | 0.00 | 0.00 | 72 | 1019.8 |
| 20260510043551 | 53 | 0 | 0.0 | 0.9 | 0.00 | 0.00 | 0.00 | 73 | 1019.8 |
| 20260510043051 | 53 | 115 | 0.0 | 1.7 | 0.00 | 0.00 | 0.00 | 73 | 1019.9 |
| 20260510042555 | 53 | 0 | 0.0 | 1.7 | 0.00 | 0.00 | 0.00 | 73 | 1019.8 |
| 20260510042051 | 53 | 0 | 0.0 | 0.9 | 0.00 | 0.00 | 0.00 | 73 | 1019.8 |
| 20260510041553 | 53 | 0 | 0.0 | 0.9 | 0.00 | 0.00 | 0.00 | 72 | 1019.8 |
| 20260510041055 | 53 | 0 | 0.0 | 1.7 | 0.00 | 0.00 | 0.00 | 71 | 1019.8 |
| 20260510040549 | 53 | 0 | 0.0 | 1.7 | 0.00 | 0.00 | 0.00 | 71 | 1019.8 |
| 20260510040054 | 54 | 115 | 0.0 | 1.7 | 0.00 | 0.00 | 0.00 | 71 | 1019.8 |
| 20260510035548 | 54 | 98 | 0.0 | 2.6 | 0.00 | 0.00 | 0.00 | 71 | 1019.7 |
| 20260510035048 | 54 | 0 | 0.9 | 3.5 | 0.00 | 0.00 | 0.00 | 71 | 1019.7 |
| 20260510034554 | 54 | 71 | 0.9 | 3.5 | 0.00 | 0.00 | 0.00 | 71 | 1019.6 |
| 20260510034049 | 54 | 87 | 0.9 | 3.5 | 0.00 | 0.00 | 0.00 | 70 | 1019.5 |
| 20260510033554 | 54 | 0 | 0.0 | 1.7 | 0.00 | 0.00 | 0.00 | 69 | 1019.5 |
| 20260510033054 | 55 | 0 | 0.0 | 2.6 | 0.00 | 0.00 | 0.00 | 68 | 1019.3 |
| 20260510032554 | 55 | 97 | 0.0 | 2.6 | 0.00 | 0.00 | 0.00 | 67 | 1019.2 |
| 20260510032052 | 56 | 105 | 0.9 | 2.6 | 0.00 | 0.00 | 0.00 | 67 | 1019.1 |
| 20260510031550 | 56 | 105 | 0.0 | 3.5 | 0.00 | 0.00 | 0.00 | 66 | 1019.1 |
| 20260510031056 | 56 | 105 | 0.9 | 3.5 | 0.00 | 0.00 | 0.00 | 64 | 1019.1 |
| 20260510030554 | 56 | 82 | 0.0 | 0.9 | 0.00 | 0.00 | 0.00 | 62 | 1019.1 |
| 20260510030056 | 56 | 56 | 0.0 | 0.9 | 0.00 | 0.00 | 0.00 | 60 | 1018.9 |
| 20260510025549 | 57 | 0 | 0.0 | 0.9 | 0.00 | 0.00 | 0.00 | 57 | 1018.7 |
| 20260510025048 | 57 | 0 | 0.0 | 0.9 | 0.00 | 0.00 | 0.00 | 56 | 1018.7 |
| 20260510024556 | 58 | 0 | 0.0 | 1.7 | 0.00 | 0.00 | 0.00 | 56 | 1018.5 |
| 20260510024051 | 58 | 0 | 0.0 | 1.7 | 0.00 | 0.00 | 0.00 | 55 | 1018.4 |
| 20260510023552 | 59 | 0 | 0.0 | 0.0 | 0.00 | 0.00 | 0.00 | 54 | 1018.4 |
| 20260510023102 | 59 | 0 | 0.0 | 0.0 | 0.00 | 0.00 | 0.00 | 51 | 1018.4 |
| 20260510022550 | 59 | 0 | 0.0 | 2.6 | 0.00 | 0.00 | 0.00 | 51 | 1018.6 |
| 20260510022052 | 60 | 0 | 0.0 | 2.6 | 0.00 | 0.00 | 0.00 | 50 | 1018.5 |
| 20260510021557 | 60 | 0 | 0.9 | 2.6 | 0.00 | 0.00 | 0.00 | 49 | 1018.4 |
| 20260510021052 | 60 | 76 | 0.9 | 7.0 | 0.00 | 0.00 | 0.00 | 49 | 1018.4 |
| 20260510020552 | 61 | 0 | 0.9 | 7.0 | 0.00 | 0.00 | 0.00 | 49 | 1018.3 |
| 20260510020059 | 61 | 82 | 2.6 | 7.0 | 0.00 | 0.00 | 0.00 | 47 | 1018.2 |
| 20260510015553 | 61 | 57 | 1.7 | 6.1 | 0.00 | 0.00 | 0.00 | 47 | 1018.2 |
| 20260510015050 | 62 | 72 | 2.6 | 6.1 | 0.00 | 0.00 | 0.00 | 47 | 1018.2 |
| 20260510014557 | 62 | 60 | 1.7 | 6.1 | 0.00 | 0.00 | 0.00 | 47 | 1018.1 |
| 20260510014052 | 62 | 42 | 0.9 | 5.2 | 0.00 | 0.00 | 0.00 | 48 | 1018.1 |
| 20260510013549 | 62 | 21 | 0.9 | 5.2 | 0.00 | 0.00 | 0.00 | 49 | 1018.1 |
| 20260510013056 | 62 | 46 | 1.7 | 7.0 | 0.00 | 0.00 | 0.00 | 49 | 1018.0 |
| 20260510012549 | 62 | 77 | 2.6 | 7.0 | 0.00 | 0.00 | 0.00 | 48 | 1017.9 |
| 20260510012053 | 63 | 74 | 3.5 | 7.0 | 0.00 | 0.00 | 0.00 | 49 | 1017.9 |
| 20260510011559 | 63 | 59 | 1.7 | 6.1 | 0.00 | 0.00 | 0.00 | 48 | 1018.0 |
| 20260510011052 | 63 | 51 | 0.9 | 7.8 | 0.00 | 0.00 | 0.00 | 46 | 1018.0 |
| 20260510010552 | 62 | 0 | 1.7 | 7.8 | 0.00 | 0.00 | 0.00 | 45 | 1018.0 |
| 20260510010123 | 62 | 46 | 2.6 | 5.2 | 0.00 | 0.00 | 0.00 | 47 | 1018.0 |
| 20260510005553 | 62 | 72 | 2.6 | 5.2 | 0.00 | 0.00 | 0.00 | 46 | 1018.0 |
| 20260510005052 | 62 | 48 | 2.6 | 5.2 | 0.00 | 0.00 | 0.00 | 46 | 1018.0 |
| 20260510004554 | 63 | 52 | 1.7 | 7.0 | 0.00 | 0.00 | 0.00 | 46 | 1018.0 |
| 20260510004051 | 63 | 9 | 2.6 | 7.0 | 0.00 | 0.00 | 0.00 | 47 | 1018.1 |
| 20260510003551 | 63 | 0 | 0.9 | 2.6 | 0.00 | 0.00 | 0.00 | 46 | 1018.1 |
| 20260510003058 | 63 | 0 | 0.9 | 2.6 | 0.00 | 0.00 | 0.00 | 45 | 1018.1 |
| 20260510002551 | 63 | 300 | 0.0 | 3.5 | 0.00 | 0.00 | 0.00 | 46 | 1018.1 |
| 20260510002051 | 64 | 0 | 1.7 | 7.0 | 0.00 | 0.00 | 0.00 | 46 | 1018.0 |
| 20260510001553 | 64 | 0 | 0.9 | 7.0 | 0.00 | 0.00 | 0.00 | 45 | 1018.0 |
| 20260510001051 | 64 | 40 | 3.5 | 7.0 | 0.00 | 0.00 | 0.00 | 46 | 1018.0 |
| 20260510000551 | 64 | 65 | 2.6 | 5.2 | 0.00 | 0.00 | 0.00 | 45 | 1018.0 |
| 20260510000054 | 64 | 58 | 0.9 | 2.6 | 0.00 | 0.00 | 0.00 | 50 | 1018.0 |
| 20260509235550 | 63 | 58 | 0.0 | 4.3 | 0.00 | 0.00 | 0.00 | 53 | 1018.0 |
| 20260509235052 | 62 | 52 | 0.9 | 4.3 | 0.00 | 0.00 | 0.00 | 51 | 1018.0 |
| 20260509234618 | 61 | 0 | 0.0 | 3.5 | 0.00 | 0.00 | 0.00 | 54 | 1017.9 |
| 20260509234053 | 61 | 42 | 0.9 | 3.5 | 0.00 | 0.00 | 0.00 | 55 | 1017.8 |
| 20260509233550 | 61 | 26 | 0.9 | 7.0 | 0.00 | 0.00 | 0.00 | 57 | 1017.9 |
| 20260509233056 | 62 | 360 | 1.7 | 14.8 | 0.00 | 0.00 | 0.00 | 57 | 1017.9 |
| 20260509232552 | 63 | 5 | 6.1 | 14.8 | 0.00 | 0.00 | 0.00 | 55 | 1017.9 |
| 20260509232052 | 64 | 325 | 3.5 | 10.4 | 0.00 | 0.00 | 0.00 | 43 | 1017.8 |
| 20260509231553 | 64 | 344 | 2.6 | 10.4 | 0.00 | 0.00 | 0.00 | 43 | 1017.7 |
| 20260509231144 | 65 | 340 | 4.3 | 10.4 | 0.00 | 0.00 | 0.00 | 43 | 1017.6 |
| 20260509230550 | 65 | 304 | 4.3 | 10.4 | 0.00 | 0.00 | 0.00 | 44 | 1017.6 |
| 20260509230056 | 65 | 338 | 4.3 | 10.4 | 0.00 | 0.00 | 0.00 | 46 | 1017.5 |
| 20260509225553 | 64 | 21 | 1.7 | 7.8 | 0.00 | 0.00 | 0.00 | 48 | 1017.5 |
| 20260509225050 | 65 | 14 | 3.5 | 7.8 | 0.00 | 0.00 | 0.00 | 49 | 1017.5 |
| 20260509224553 | 64 | 26 | 3.5 | 7.8 | 0.00 | 0.00 | 0.00 | 48 | 1017.5 |
| 20260509224054 | 65 | 317 | 2.6 | 7.8 | 0.00 | 0.00 | 0.00 | 46 | 1017.5 |
| 20260509223552 | 66 | 5 | 3.5 | 7.8 | 0.00 | 0.00 | 0.00 | 46 | 1017.5 |
| 20260509223100 | 67 | 28 | 3.5 | 9.6 | 0.00 | 0.00 | 0.00 | 47 | 1017.4 |
| 20260509222552 | 67 | 5 | 4.3 | 9.6 | 0.00 | 0.00 | 0.00 | 44 | 1017.4 |
| 20260509222052 | 67 | 310 | 3.5 | 10.4 | 0.00 | 0.00 | 0.00 | 40 | 1017.3 |
| 20260509221552 | 67 | 360 | 4.3 | 10.4 | 0.00 | 0.00 | 0.00 | 40 | 1017.4 |
| 20260509221054 | 67 | 312 | 4.3 | 12.2 | 0.00 | 0.00 | 0.00 | 39 | 1017.3 |
| 20260509220551 | 67 | 309 | 3.5 | 12.2 | 0.00 | 0.00 | 0.00 | 42 | 1017.3 |
| 20260509220057 | 67 | 308 | 2.6 | 9.6 | 0.00 | 0.00 | 0.00 | 41 | 1017.3 |
| 20260509215551 | 66 | 340 | 3.5 | 11.3 | 0.00 | 0.00 | 0.00 | 41 | 1017.3 |
| 20260509215051 | 66 | 313 | 5.2 | 11.3 | 0.00 | 0.00 | 0.00 | 41 | 1017.3 |
| 20260509214553 | 66 | 296 | 5.2 | 11.3 | 0.00 | 0.00 | 0.00 | 42 | 1017.3 |
| 20260509214050 | 66 | 355 | 3.5 | 13.0 | 0.00 | 0.00 | 0.00 | 44 | 1017.3 |
| 20260509213551 | 66 | 5 | 4.3 | 13.0 | 0.00 | 0.00 | 0.00 | 42 | 1017.3 |
| 20260509213055 | 66 | 320 | 3.5 | 9.6 | 0.00 | 0.00 | 0.00 | 43 | 1017.4 |
| 20260509212550 | 66 | 315 | 5.2 | 10.4 | 0.00 | 0.00 | 0.00 | 42 | 1017.5 |
| 20260509212050 | 66 | 312 | 5.2 | 13.9 | 0.00 | 0.00 | 0.00 | 43 | 1017.5 |
| 20260509211555 | 65 | 320 | 5.2 | 13.9 | 0.00 | 0.00 | 0.00 | 45 | 1017.5 |
| 20260509211055 | 65 | 323 | 7.0 | 11.3 | 0.00 | 0.00 | 0.00 | 44 | 1017.5 |
| 20260509210550 | 65 | 342 | 5.2 | 11.3 | 0.00 | 0.00 | 0.00 | 46 | 1017.4 |
| 20260509210053 | 65 | 315 | 6.1 | 11.3 | 0.00 | 0.00 | 0.00 | 45 | 1017.6 |
| 20260509205549 | 65 | 350 | 7.0 | 13.9 | 0.00 | 0.00 | 0.00 | 46 | 1017.5 |
| 20260509205054 | 64 | 327 | 7.8 | 13.9 | 0.00 | 0.00 | 0.00 | 46 | 1017.4 |
| 20260509204558 | 64 | 350 | 4.3 | 15.6 | 0.00 | 0.00 | 0.00 | 46 | 1017.4 |
| 20260509204052 | 63 | 322 | 7.0 | 15.6 | 0.00 | 0.00 | 0.00 | 47 | 1017.4 |
| 20260509203550 | 63 | 337 | 7.0 | 15.6 | 0.00 | 0.00 | 0.00 | 46 | 1017.4 |
| 20260509203124 | 63 | 355 | 8.7 | 15.6 | 0.00 | 0.00 | 0.00 | 45 | 1017.4 |
| 20260509202550 | 63 | 319 | 8.7 | 14.8 | 0.00 | 0.00 | 0.00 | 46 | 1017.3 |
| 20260509202054 | 63 | 352 | 7.8 | 13.9 | 0.00 | 0.00 | 0.00 | 46 | 1017.3 |
| 20260509201604 | 64 | 329 | 8.7 | 15.6 | 0.00 | 0.00 | 0.00 | 46 | 1017.2 |
| 20260509201050 | 63 | 333 | 7.8 | 15.6 | 0.00 | 0.00 | 0.00 | 48 | 1017.4 |
| 20260509200553 | 63 | 300 | 7.8 | 15.6 | 0.00 | 0.00 | 0.00 | 49 | 1017.3 |
| 20260509195553 | 63 | 326 | 5.2 | 15.6 | 0.00 | 0.00 | 0.00 | 52 | 1017.3 |
| 20260509195053 | 62 | 303 | 7.0 | 12.2 | 0.00 | 0.00 | 0.00 | 51 | 1017.4 |
| 20260509194551 | 63 | 252 | 6.1 | 14.8 | 0.00 | 0.00 | 0.00 | 50 | 1017.4 |
| 20260509194050 | 62 | 350 | 7.0 | 14.8 | 0.00 | 0.00 | 0.00 | 50 | 1017.4 |
| 20260509193549 | 62 | 276 | 8.7 | 14.8 | 0.00 | 0.00 | 0.00 | 48 | 1017.4 |
| 20260509193116 | 63 | 311 | 7.8 | 14.8 | 0.00 | 0.00 | 0.00 | 49 | 1017.4 |
| 20260509192551 | 62 | 293 | 4.3 | 11.3 | 0.00 | 0.00 | 0.00 | 53 | 1017.3 |
| 20260509192051 | 62 | 290 | 5.2 | 11.3 | 0.00 | 0.00 | 0.00 | 55 | 1017.3 |
| 20260509191558 | 61 | 329 | 3.5 | 11.3 | 0.00 | 0.00 | 0.00 | 59 | 1017.3 |
| 20260509191052 | 59 | 340 | 4.3 | 11.3 | 0.00 | 0.00 | 0.00 | 58 | 1017.4 |
| 20260509190548 | 58 | 323 | 5.2 | 10.4 | 0.00 | 0.00 | 0.00 | 60 | 1017.5 |
| 20260509190056 | 56 | 345 | 4.3 | 10.4 | 0.00 | 0.00 | 0.00 | 65 | 1017.6 |
| 20260509185553 | 55 | 298 | 2.6 | 8.7 | 0.00 | 0.00 | 0.00 | 71 | 1017.6 |
| 20260509185049 | 55 | 319 | 1.7 | 10.4 | 0.00 | 0.00 | 0.00 | 73 | 1017.6 |
| 20260509184552 | 55 | 360 | 1.7 | 10.4 | 0.00 | 0.00 | 0.00 | 70 | 1017.5 |
| 20260509184048 | 57 | 302 | 5.2 | 15.6 | 0.00 | 0.00 | 0.00 | 66 | 1017.8 |
| 20260509183555 | 59 | 10 | 7.8 | 15.6 | 0.00 | 0.00 | 0.00 | 58 | 1017.9 |
| 20260509183059 | 61 | 355 | 3.5 | 8.7 | 0.00 | 0.00 | 0.00 | 55 | 1017.7 |
| 20260509182553 | 61 | 352 | 1.7 | 8.7 | 0.00 | 0.00 | 0.00 | 55 | 1017.4 |
| 20260509182054 | 61 | 346 | 2.6 | 8.7 | 0.00 | 0.00 | 0.00 | 57 | 1017.4 |
| 20260509181559 | 61 | 340 | 3.5 | 7.0 | 0.00 | 0.00 | 0.00 | 57 | 1017.5 |
| 20260509181050 | 60 | 326 | 1.7 | 6.1 | 0.00 | 0.00 | 0.00 | 56 | 1017.6 |
| 20260509180558 | 59 | 285 | 2.6 | 8.7 | 0.00 | 0.00 | 0.00 | 57 | 1017.6 |
| 20260509180104 | 59 | 275 | 2.6 | 8.7 | 0.00 | 0.00 | 0.00 | 56 | 1017.6 |
| 20260509175553 | 59 | 306 | 2.6 | 8.7 | 0.00 | 0.00 | 0.00 | 60 | 1017.6 |
| 20260509175051 | 60 | 333 | 0.9 | 7.8 | 0.00 | 0.00 | 0.00 | 58 | 1017.5 |
| 20260509174550 | 60 | 294 | 2.6 | 7.8 | 0.00 | 0.00 | 0.00 | 55 | 1017.4 |
| 20260509174053 | 60 | 328 | 2.6 | 9.6 | 0.00 | 0.00 | 0.00 | 56 | 1017.4 |
| 20260509173552 | 60 | 346 | 3.5 | 9.6 | 0.00 | 0.00 | 0.00 | 52 | 1017.3 |
| 20260509173101 | 60 | 315 | 3.5 | 8.7 | 0.00 | 0.00 | 0.00 | 58 | 1017.3 |
| 20260509172550 | 59 | 340 | 0.9 | 10.4 | 0.00 | 0.00 | 0.00 | 57 | 1017.3 |
| 20260509172053 | 60 | 348 | 4.3 | 10.4 | 0.00 | 0.00 | 0.00 | 56 | 1017.4 |
| 20260509171559 | 60 | 330 | 3.5 | 10.4 | 0.00 | 0.00 | 0.00 | 59 | 1017.3 |
| 20260509171051 | 60 | 14 | 2.6 | 7.0 | 0.00 | 0.00 | 0.00 | 57 | 1017.2 |
| 20260509170552 | 60 | 327 | 1.7 | 7.0 | 0.00 | 0.00 | 0.00 | 58 | 1017.2 |
| 20260509170058 | 59 | 352 | 1.7 | 7.0 | 0.00 | 0.00 | 0.00 | 58 | 1017.1 |
| 20260509165551 | 59 | 11 | 1.7 | 7.0 | 0.00 | 0.00 | 0.00 | 61 | 1017.1 |
| 20260509165050 | 58 | 340 | 1.7 | 7.8 | 0.00 | 0.00 | 0.00 | 59 | 1017.1 |
| 20260509164602 | 58 | 346 | 2.6 | 7.8 | 0.00 | 0.00 | 0.00 | 60 | 1017.1 |
| 20260509164050 | 58 | 22 | 2.6 | 7.8 | 0.00 | 0.00 | 0.00 | 60 | 1017.0 |
| 20260509163555 | 58 | 336 | 3.5 | 9.6 | 0.00 | 0.00 | 0.00 | 61 | 1017.0 |
| 20260509163057 | 59 | 310 | 2.6 | 9.6 | 0.00 | 0.00 | 0.00 | 60 | 1017.1 |
| 20260509162551 | 59 | 355 | 1.7 | 6.1 | 0.00 | 0.00 | 0.00 | 61 | 1017.0 |
| 20260509162052 | 58 | 343 | 1.7 | 7.8 | 0.00 | 0.00 | 0.00 | 63 | 1017.0 |
| 20260509161558 | 58 | 341 | 1.7 | 7.8 | 0.00 | 0.00 | 0.00 | 62 | 1017.0 |
| 20260509161050 | 58 | 317 | 2.6 | 6.1 | 0.00 | 0.00 | 0.00 | 63 | 1017.0 |
| 20260509160551 | 57 | 311 | 1.7 | 7.0 | 0.00 | 0.00 | 0.00 | 62 | 1016.9 |
| 20260509160054 | 57 | 319 | 1.7 | 7.8 | 0.00 | 0.00 | 0.00 | 65 | 1017.0 |
| 20260509155550 | 58 | 323 | 3.5 | 7.8 | 0.00 | 0.00 | 0.00 | 62 | 1016.8 |
| 20260509155052 | 58 | 289 | 1.7 | 5.2 | 0.00 | 0.00 | 0.00 | 61 | 1016.8 |
| 20260509154554 | 58 | 19 | 1.7 | 5.2 | 0.00 | 0.00 | 0.00 | 60 | 1016.7 |
| 20260509154052 | 57 | 311 | 1.7 | 5.2 | 0.00 | 0.00 | 0.00 | 59 | 1016.7 |
| 20260509153552 | 57 | 294 | 0.9 | 5.2 | 0.00 | 0.00 | 0.00 | 59 | 1016.6 |
| 20260509153057 | 57 | 5 | 1.7 | 7.0 | 0.00 | 0.00 | 0.00 | 60 | 1016.6 |
| 20260509152552 | 57 | 329 | 2.6 | 7.0 | 0.00 | 0.00 | 0.00 | 60 | 1016.5 |
| 20260509152052 | 57 | 347 | 2.6 | 7.0 | 0.00 | 0.00 | 0.00 | 60 | 1016.5 |
| 20260509151609 | 57 | 308 | 1.7 | 5.2 | 0.00 | 0.00 | 0.00 | 60 | 1016.5 |
| 20260509151051 | 57 | 309 | 1.7 | 7.0 | 0.00 | 0.00 | 0.00 | 60 | 1016.4 |
| 20260509150550 | 57 | 294 | 2.6 | 7.0 | 0.00 | 0.00 | 0.00 | 60 | 1016.3 |
| 20260509150054 | 57 | 270 | 1.7 | 6.1 | 0.00 | 0.00 | 0.00 | 60 | 1016.4 |
| 20260509145551 | 57 | 304 | 0.9 | 6.1 | 0.00 | 0.00 | 0.00 | 60 | 1016.3 |
| 20260509145050 | 57 | 284 | 1.7 | 6.1 | 0.00 | 0.00 | 0.00 | 60 | 1016.2 |
| 20260509144554 | 57 | 270 | 1.7 | 5.2 | 0.00 | 0.00 | 0.00 | 60 | 1016.2 |
| 20260509144051 | 57 | 327 | 1.7 | 7.0 | 0.00 | 0.00 | 0.00 | 60 | 1016.2 |
| 20260509143555 | 56 | 297 | 1.7 | 7.0 | 0.00 | 0.00 | 0.00 | 61 | 1016.0 |
| 20260509143053 | 56 | 308 | 2.6 | 7.0 | 0.00 | 0.00 | 0.00 | 63 | 1016.0 |
| 20260509142551 | 55 | 0 | 0.9 | 5.2 | 0.00 | 0.00 | 0.00 | 65 | 1016.0 |
| 20260509142051 | 54 | 0 | 0.9 | 5.2 | 0.00 | 0.00 | 0.00 | 65 | 1016.0 |
| 20260509141554 | 54 | 0 | 0.9 | 3.5 | 0.00 | 0.00 | 0.00 | 66 | 1015.9 |
| 20260509141052 | 53 | 0 | 0.9 | 3.5 | 0.00 | 0.00 | 0.00 | 66 | 1015.9 |
| 20260509140552 | 53 | 286 | 0.0 | 3.5 | 0.00 | 0.00 | 0.00 | 67 | 1015.9 |
| 20260509140057 | 53 | 0 | 0.9 | 3.5 | 0.00 | 0.00 | 0.00 | 67 | 1015.9 |
| 20260509135553 | 52 | 296 | 1.7 | 3.5 | 0.00 | 0.00 | 0.00 | 68 | 1015.8 |
| 20260509135053 | 52 | 0 | 0.9 | 2.6 | 0.00 | 0.00 | 0.00 | 69 | 1015.7 |
| 20260509134555 | 52 | 0 | 0.0 | 2.6 | 0.00 | 0.00 | 0.00 | 68 | 1015.8 |
| 20260509134052 | 52 | 293 | 0.0 | 2.6 | 0.00 | 0.00 | 0.00 | 67 | 1015.7 |
| 20260509133551 | 52 | 0 | 0.0 | 2.6 | 0.00 | 0.00 | 0.00 | 67 | 1015.8 |
| 20260509133103 | 52 | 0 | 0.0 | 3.5 | 0.00 | 0.00 | 0.00 | 67 | 1015.6 |
| 20260509132551 | 52 | 0 | 0.0 | 4.3 | 0.00 | 0.00 | 0.00 | 67 | 1015.5 |
| 20260509132051 | 52 | 0 | 0.0 | 4.3 | 0.00 | 0.00 | 0.00 | 67 | 1015.3 |
| 20260509131552 | 52 | 313 | 1.7 | 4.3 | 0.00 | 0.00 | 0.00 | 67 | 1015.3 |
| 20260509131051 | 52 | 304 | 1.7 | 6.1 | 0.00 | 0.00 | 0.00 | 68 | 1015.2 |
| 20260509130551 | 52 | 325 | 1.7 | 7.0 | 0.00 | 0.00 | 0.00 | 68 | 1015.2 |
| 20260509125550 | 52 | 306 | 1.7 | 5.2 | 0.00 | 0.00 | 0.00 | 68 | 1014.9 |
| 20260509125050 | 52 | 344 | 0.9 | 4.3 | 0.00 | 0.00 | 0.00 | 68 | 1014.8 |
| 20260509124552 | 52 | 328 | 1.7 | 7.0 | 0.00 | 0.00 | 0.00 | 68 | 1014.8 |
| 20260509124053 | 53 | 328 | 2.6 | 7.8 | 0.00 | 0.00 | 0.00 | 68 | 1014.6 |
| 20260509123551 | 53 | 317 | 2.6 | 7.8 | 0.00 | 0.00 | 0.00 | 67 | 1014.5 |
| 20260509123053 | 53 | 280 | 2.6 | 7.8 | 0.00 | 0.00 | 0.00 | 67 | 1014.4 |
| 20260509122552 | 53 | 306 | 1.7 | 8.7 | 0.00 | 0.00 | 0.00 | 66 | 1014.4 |
| 20260509122052 | 53 | 311 | 2.6 | 8.7 | 0.00 | 0.00 | 0.00 | 66 | 1014.3 |
| 20260509121555 | 53 | 317 | 2.6 | 7.8 | 0.00 | 0.00 | 0.00 | 66 | 1014.2 |
| 20260509121051 | 53 | 311 | 2.6 | 7.8 | 0.00 | 0.00 | 0.00 | 66 | 1013.9 |
| 20260509120551 | 53 | 314 | 3.5 | 7.8 | 0.00 | 0.00 | 0.00 | 66 | 1013.9 |
| 20260509120058 | 53 | 303 | 3.5 | 8.7 | 0.00 | 0.00 | 0.00 | 66 | 1013.8 |
| 20260509115550 | 54 | 318 | 4.3 | 8.7 | 0.00 | 0.00 | 0.00 | 65 | 1013.7 |
| 20260509115050 | 54 | 293 | 3.5 | 10.4 | 0.00 | 0.00 | 0.00 | 65 | 1013.7 |
| 20260509114553 | 54 | 271 | 4.3 | 10.4 | 0.00 | 0.00 | 0.00 | 65 | 1013.7 |
| 20260509114053 | 54 | 319 | 3.5 | 8.7 | 0.00 | 0.00 | 0.00 | 65 | 1013.5 |
| 20260509113551 | 54 | 277 | 4.3 | 8.7 | 0.00 | 0.00 | 0.00 | 65 | 1013.5 |
| 20260509113052 | 54 | 317 | 3.5 | 8.7 | 0.00 | 0.00 | 0.00 | 65 | 1013.5 |
| 20260509112550 | 54 | 325 | 3.5 | 8.7 | 0.00 | 0.00 | 0.00 | 65 | 1013.3 |
| 20260509112050 | 54 | 342 | 3.5 | 7.8 | 0.00 | 0.00 | 0.00 | 64 | 1013.2 |
| 20260509111556 | 55 | 313 | 4.3 | 8.7 | 0.00 | 0.00 | 0.00 | 64 | 1013.0 |
| 20260509111051 | 55 | 337 | 3.5 | 9.6 | 0.00 | 0.00 | 0.00 | 64 | 1013.0 |
| 20260509110553 | 55 | 313 | 5.2 | 9.6 | 0.00 | 0.00 | 0.00 | 63 | 1012.9 |
| 20260509110053 | 55 | 301 | 3.5 | 8.7 | 0.00 | 0.00 | 0.00 | 63 | 1012.8 |
| 20260509105552 | 55 | 304 | 4.3 | 8.7 | 0.00 | 0.00 | 0.00 | 62 | 1012.8 |
| 20260509105051 | 55 | 296 | 4.3 | 9.6 | 0.00 | 0.00 | 0.00 | 62 | 1012.7 |
| 20260509104552 | 55 | 318 | 2.6 | 9.6 | 0.00 | 0.00 | 0.00 | 62 | 1012.7 |
| 20260509104050 | 55 | 300 | 4.3 | 9.6 | 0.00 | 0.00 | 0.00 | 61 | 1012.7 |
| 20260509103552 | 55 | 350 | 4.3 | 7.8 | 0.00 | 0.00 | 0.00 | 61 | 1012.7 |
| 20260509103054 | 56 | 346 | 3.5 | 8.7 | 0.00 | 0.00 | 0.00 | 60 | 1012.7 |
| 20260509102551 | 56 | 308 | 3.5 | 9.6 | 0.00 | 0.00 | 0.00 | 60 | 1012.6 |
| 20260509102054 | 56 | 306 | 2.6 | 9.6 | 0.00 | 0.00 | 0.00 | 59 | 1012.5 |
| 20260509101553 | 56 | 273 | 0.9 | 5.2 | 0.00 | 0.00 | 0.00 | 59 | 1012.4 |
| 20260509101052 | 56 | 278 | 0.9 | 5.2 | 0.00 | 0.00 | 0.00 | 59 | 1012.4 |
| 20260509100550 | 55 | 274 | 0.0 | 1.7 | 0.00 | 0.00 | 0.00 | 59 | 1012.4 |
| 20260509100056 | 55 | 0 | 0.0 | 2.6 | 0.00 | 0.00 | 0.00 | 59 | 1012.4 |
| 20260509095551 | 55 | 0 | 0.9 | 2.6 | 0.00 | 0.00 | 0.00 | 60 | 1012.3 |
| 20260509095053 | 55 | 0 | 0.0 | 2.6 | 0.00 | 0.00 | 0.00 | 60 | 1012.3 |
| 20260509094554 | 55 | 0 | 0.0 | 2.6 | 0.00 | 0.00 | 0.00 | 59 | 1012.3 |
| 20260509094053 | 55 | 304 | 0.0 | 2.6 | 0.00 | 0.00 | 0.00 | 59 | 1012.3 |
| 20260509093552 | 55 | 329 | 0.0 | 2.6 | 0.00 | 0.00 | 0.00 | 59 | 1012.3 |
| 20260509093058 | 55 | 0 | 0.0 | 0.0 | 0.00 | 0.00 | 0.00 | 59 | 1012.3 |
| 20260509092552 | 56 | 0 | 0.0 | 2.6 | 0.00 | 0.00 | 0.00 | 60 | 1012.2 |
| 20260509092052 | 56 | 0 | 0.0 | 2.6 | 0.00 | 0.00 | 0.00 | 60 | 1012.2 |
| 20260509091600 | 56 | 0 | 0.0 | 2.6 | 0.00 | 0.00 | 0.00 | 59 | 1012.3 |
| 20260509091051 | 57 | 0 | 0.0 | 0.9 | 0.00 | 0.00 | 0.00 | 59 | 1012.1 |
| 20260509090553 | 57 | 0 | 0.0 | 1.7 | 0.00 | 0.00 | 0.00 | 58 | 1012.0 |
| 20260509090059 | 58 | 0 | 0.0 | 2.6 | 0.00 | 0.00 | 0.00 | 57 | 1011.9 |
| 20260509085555 | 58 | 0 | 0.9 | 6.1 | 0.00 | 0.00 | 0.00 | 56 | 1011.9 |
| 20260509085056 | 58 | 0 | 0.9 | 6.1 | 0.00 | 0.00 | 0.00 | 56 | 1011.9 |
| 20260509084555 | 58 | 309 | 0.9 | 4.3 | 0.00 | 0.00 | 0.00 | 56 | 1011.9 |
| 20260509084051 | 59 | 315 | 1.7 | 4.3 | 0.00 | 0.00 | 0.00 | 54 | 1011.7 |
| 20260509083550 | 59 | 26 | 2.6 | 5.2 | 0.00 | 0.00 | 0.00 | 54 | 1011.7 |
| 20260509083111 | 59 | 355 | 1.7 | 6.1 | 0.00 | 0.00 | 0.00 | 55 | 1011.6 |
| 20260509082550 | 60 | 355 | 2.6 | 9.6 | 0.00 | 0.00 | 0.00 | 54 | 1011.7 |
| 20260509082050 | 60 | 5 | 1.7 | 9.6 | 0.00 | 0.00 | 0.00 | 52 | 1011.6 |
| 20260509081604 | 60 | 5 | 2.6 | 7.0 | 0.00 | 0.00 | 0.00 | 51 | 1011.6 |
| 20260509081050 | 60 | 346 | 0.9 | 7.8 | 0.00 | 0.00 | 0.00 | 49 | 1011.6 |
| 20260509080553 | 61 | 346 | 1.7 | 7.8 | 0.00 | 0.00 | 0.00 | 49 | 1011.5 |
| 20260509080108 | 61 | 292 | 3.5 | 7.8 | 0.00 | 0.00 | 0.00 | 48 | 1011.4 |
| 20260509075552 | 61 | 319 | 3.5 | 12.2 | 0.00 | 0.00 | 0.00 | 47 | 1011.4 |
| 20260509075052 | 62 | 321 | 5.2 | 13.9 | 0.00 | 0.00 | 0.00 | 46 | 1011.3 |
| 20260509074557 | 62 | 247 | 6.1 | 13.9 | 0.00 | 0.00 | 0.00 | 44 | 1011.1 |
| 20260509074051 | 62 | 263 | 8.7 | 13.0 | 0.00 | 0.00 | 0.00 | 44 | 1010.7 |
| 20260509073552 | 62 | 272 | 7.8 | 13.0 | 0.00 | 0.00 | 0.00 | 44 | 1010.5 |
| 20260509073054 | 62 | 257 | 7.8 | 13.0 | 0.00 | 0.00 | 0.00 | 44 | 1010.5 |
| 20260509072551 | 62 | 306 | 6.1 | 16.5 | 0.00 | 0.00 | 0.00 | 44 | 1010.5 |
| 20260509072052 | 62 | 304 | 7.0 | 18.2 | 0.00 | 0.00 | 0.00 | 44 | 1010.5 |
| 20260509071609 | 62 | 281 | 7.0 | 18.2 | 0.00 | 0.00 | 0.00 | 43 | 1010.5 |
| 20260509071052 | 63 | 273 | 7.8 | 18.2 | 0.00 | 0.00 | 0.00 | 43 | 1010.5 |
| 20260509070553 | 63 | 275 | 6.1 | 13.9 | 0.00 | 0.00 | 0.00 | 42 | 1010.5 |
| 20260509070105 | 63 | 259 | 6.1 | 13.9 | 0.00 | 0.00 | 0.00 | 42 | 1010.3 |
| 20260509065552 | 63 | 300 | 7.0 | 12.2 | 0.00 | 0.00 | 0.00 | 42 | 1010.3 |
| 20260509065049 | 63 | 360 | 6.1 | 14.8 | 0.00 | 0.00 | 0.00 | 43 | 1010.2 |
| 20260509064556 | 63 | 266 | 7.0 | 14.8 | 0.00 | 0.00 | 0.00 | 43 | 1010.2 |
| 20260509064054 | 63 | 299 | 8.7 | 14.8 | 0.00 | 0.00 | 0.00 | 43 | 1010.2 |
| 20260509063555 | 63 | 278 | 6.1 | 14.8 | 0.00 | 0.00 | 0.00 | 42 | 1010.3 |
| 20260509063058 | 64 | 287 | 5.2 | 14.8 | 0.00 | 0.00 | 0.00 | 41 | 1010.3 |
| 20260509062549 | 64 | 287 | 6.1 | 15.6 | 0.00 | 0.00 | 0.00 | 39 | 1010.2 |
| 20260509062051 | 64 | 250 | 8.7 | 15.6 | 0.00 | 0.00 | 0.00 | 39 | 1010.0 |
| 20260509061613 | 64 | 287 | 7.8 | 13.9 | 0.00 | 0.00 | 0.00 | 39 | 1010.0 |
| 20260509061053 | 64 | 264 | 7.8 | 12.2 | 0.00 | 0.00 | 0.00 | 39 | 1009.8 |